Terminal Aerodrome Forecast
Issued by NWS

Home | Current Version | Previous Version | Text Only | Print | Product List | Glossary On
Versions: 1 2 3 4 5 6 7 8 9 10 11 12 13 14
000
FTUS45 KRIW 042337
TAFBPI
TAF
KBPI 042337Z 0500/0524 28020G30KT P6SM VCSH SCT040 BKN050
      WS018/27050KT
     FM050200 28018G26KT 3SM -SN OVC020 WS018/27050KT
     FM051000 29018G26KT 5SM -SN OVC025
     FM051700 30012G18KT P6SM VCSH SCT025 BKN040 OVC060=

USA.gov is the U.S. government's official web portal to all federal, state and local government web resources and services.